sat.trackr.live / text

‹ back to catalog

STARLINK-11544 [DTC]

NORAD 62984 · 2025-031D

PAYLOAD ACTIVE UNKNOWN

§ Identity

Operator
Country
US
Launch date
2025-02-11
Launch site
AFETR
Launch vehicle
Mass (kg)
RCS (m²)

Purposes: comms

External: N2YO · Heavens-Above · Gunter

§ Orbital elements

Epoch: 2026-09-21T00:16:14.268864Z

Period
91.67 min
Inclination
42.9964°
Eccentricity
0.0000098
Mean motion
15.70911692 rev/d
Perigee alt
356.2 km
Apogee alt
356.4 km
Semi-major
6,734.4 km
B*
9.1419e-4
RAAN
263.9250°
Arg perigee
263.8919°
Mean anomaly
96.1938°
Rev number
9,343

§ Raw data

STARLINK-11544 [DTC]1 62984U 25031D   26264.01127626  .00118905  00000+0  91419-3 0  99952 62984  42.9964 263.9250 0000098 263.8919  96.1938 15.70911692 93433

JSON: /api/v1/satellites/62984 · /tle

For live sub-satellite position, see the globe view (requires WebGL).

§ Visibility from observer

Set your observer location to see the next 7 days of passes ≥ 10°. The values pass through the URL so the page stays shareable.

No JS? Fill the form by hand. The geolocation button needs JavaScript.